Suffolk, VA

7:39 AM EDT on July 28, 2017 (GMT -0400)
Suffolk Municipal

Weather History for KSFQ - March, 2014

Change the Weather History Date:

Tuesday, March 18, 2014

  Actual Average Record
Temperature  
Mean Temperature 37 °F -  
Max Temperature 40 °F 57 °F 84 °F (2011)
Min Temperature 34 °F 37 °F 22 °F (1967)
Degree Days  
Heating Degree Days 28    
Moisture  
Dew Point 36 °F    
Average Humidity 92    
Maximum Humidity 97    
Minimum Humidity 83    
Precipitation  
Precipitation 0.11 in - - ()
Sea Level Pressure  
Sea Level Pressure 30.05 in    
Wind  
Wind Speed 12 mph (NNE)    
Max Wind Speed 17 mph    
Max Gust Speed 25 mph    
Visibility 7 miles    
Events Rain    
Averages and records for this station are not official NWS values.
T = Trace of Precipitation, MM = Missing Value Source: NWS Daily Summary

Daily Weather History Graph

Daily Weather History Graph

Search for Another Location

Airport or City:

Trip Planner

Search our weather history database for the weather conditions in past years. The results will help you decide how hot, cold, wet, or windy it might be!

Date:

Astronomy

Mar. 18, 2014 Rise Set
Actual Time 7:12 AM EDT 7:16 PM EDT
Civil Twilight 6:47 AM EDT 7:42 PM EDT
Nautical Twilight 6:17 AM EDT 8:12 PM EDT
Astronomical Twilight 5:46 AM EDT 8:42 PM EDT
Moon 9:27 PM EDT (3/18) 8:04 AM EDT (3/18)
Length of Visible Light 12h 55m
Length of Day
12h 03m
Waning Gibbous, 96% of the Moon is Illuminated
Mar 18
Waning Gibbous
Mar 23
Last Quarter
Mar 30
New
Apr 7
First Quarter
Apr 15
Full

Hourly Weather History & Observations

Time (EDT) Temp. Windchill Dew Point Humidity Pressure Visibility Wind Dir Wind Speed Gust Speed Precip Events Conditions
12:15 AM 35.1 °F 26.9 °F 33.8 °F 95% 29.99 in 7.0 mi NNE 11.5 mph - 0.01 in   Overcast
12:35 AM 35.1 °F 26.9 °F 33.8 °F 95% 29.99 in 10.0 mi NNE 11.5 mph 18.4 mph 0.01 in   Overcast
12:55 AM 35.1 °F 26.4 °F 33.8 °F 95% 29.99 in 10.0 mi NNE 12.7 mph - 0.02 in   Overcast
1:15 AM 34.9 °F 26.6 °F 33.6 °F 95% 29.99 in 7.0 mi NE 11.5 mph 17.3 mph 0.01 in   Overcast
1:35 AM 34.9 °F 26.6 °F 33.4 °F 94% 29.99 in 7.0 mi NNE 11.5 mph 17.3 mph 0.02 in   Overcast
1:55 AM 34.7 °F 27.5 °F 33.1 °F 94% 30.00 in 7.0 mi NNE 9.2 mph 18.4 mph 0.02 in   Overcast
2:15 AM 34.7 °F 26.4 °F 33.3 °F 94% 29.99 in 7.0 mi NNE 11.5 mph 19.6 mph 0.01 in   Overcast
2:35 AM 34.7 °F 25.9 °F 33.3 °F 94% 29.98 in 7.0 mi NNE 12.7 mph 17.3 mph 0.01 in   Overcast
2:55 AM 34.7 °F 26.4 °F 33.3 °F 94% 29.98 in 10.0 mi NNE 11.5 mph 17.3 mph 0.02 in   Overcast
3:15 AM 34.7 °F 25.9 °F 33.3 °F 94% 29.98 in 10.0 mi NNE 12.7 mph 18.4 mph N/A   Overcast
3:35 AM 34.7 °F 25.5 °F 33.3 °F 94% 29.99 in 10.0 mi North 13.8 mph 18.4 mph N/A   Overcast
3:55 AM 34.7 °F 26.9 °F 33.3 °F 94% 29.97 in 10.0 mi North 10.4 mph 17.3 mph N/A   Overcast
4:15 AM 34.2 °F 26.8 °F 32.9 °F 95% 29.96 in 7.0 mi North 9.2 mph 18.4 mph N/A   Overcast
4:35 AM 34.0 °F 26.0 °F 32.9 °F 96% 29.95 in 7.0 mi North 10.4 mph - N/A   Overcast
4:55 AM 34.2 °F 25.2 °F 33.1 °F 96% 29.98 in 10.0 mi NNE 12.7 mph - N/A   Overcast
5:15 AM 34.3 °F 27.7 °F 33.3 °F 96% 29.98 in 10.0 mi NNE 8.1 mph 16.1 mph N/A   Overcast
5:35 AM 34.7 °F 28.1 °F 33.6 °F 96% 29.99 in 7.0 mi NNE 8.1 mph - N/A   Overcast
5:55 AM 34.9 °F 28.3 °F 33.8 °F 96% 30.01 in 7.0 mi North 8.1 mph - N/A   Overcast
6:15 AM 34.7 °F 26.4 °F 33.8 °F 97% 29.99 in 5.0 mi North 11.5 mph 16.1 mph N/A   Overcast
6:35 AM 34.7 °F 26.4 °F 33.4 °F 95% 29.99 in 5.0 mi North 11.5 mph 16.1 mph N/A   Overcast
6:55 AM 34.7 °F 25.9 °F 33.4 °F 95% 30.00 in 7.0 mi North 12.7 mph 17.3 mph 0.01 in   Overcast
7:15 AM 34.7 °F 26.9 °F 33.4 °F 95% 29.99 in 7.0 mi North 10.4 mph 17.3 mph N/A   Overcast
7:35 AM 34.9 °F 28.3 °F 33.8 °F 96% 30.01 in 7.0 mi NNE 8.1 mph - N/A   Overcast
7:55 AM 35.2 °F 28.8 °F 34.2 °F 96% 29.99 in 5.0 mi North 8.1 mph 17.3 mph N/A   Overcast
8:15 AM 35.6 °F 26.2 °F 34.7 °F 97% 29.94 in 10.0 mi NNE 15.0 mph 21.9 mph N/A   Overcast
8:35 AM 36.1 °F 27.3 °F 34.9 °F 95% 29.98 in 10.0 mi NNE 13.8 mph 20.7 mph N/A   Overcast
8:55 AM 36.5 °F 28.2 °F 35.1 °F 95% 30.00 in 10.0 mi NNE 12.7 mph 19.6 mph N/A   Overcast
9:15 AM 36.7 °F 28.4 °F 35.6 °F 96% 30.00 in 7.0 mi NNE 12.7 mph 16.1 mph N/A   Overcast
9:35 AM 37.4 °F 29.3 °F 36.0 °F 95% 29.99 in 10.0 mi NNE 12.7 mph 19.6 mph N/A   Light Drizzle
9:55 AM 37.8 °F 29.8 °F 36.5 °F 95% 30.00 in 2.0 mi NNE 12.7 mph 19.6 mph 0.01 in Rain Light Rain
10:15 AM 38.3 °F 30.9 °F 37.2 °F 96% 30.01 in 3.0 mi NNE 11.5 mph 19.6 mph 0.01 in Rain Light Rain
10:35 AM 38.5 °F 30.3 °F 37.4 °F 96% 30.02 in 3.0 mi NNE 13.8 mph 20.7 mph 0.02 in Rain Light Rain
10:55 AM 38.5 °F 30.7 °F 37.4 °F 96% 30.01 in 3.0 mi NNE 12.7 mph 19.6 mph 0.02 in   Drizzle
11:15 AM 38.8 °F 30.0 °F 37.6 °F 95% 30.00 in 4.0 mi NNE 16.1 mph 21.9 mph N/A Rain Light Rain
11:35 AM 39.0 °F 29.9 °F 37.6 °F 95% 30.02 in 4.0 mi NNE 17.3 mph 23.0 mph N/A Rain Light Rain
11:55 AM 39.2 °F 31.2 °F 37.8 °F 95% 30.03 in 3.0 mi NNE 13.8 mph 23.0 mph N/A   Overcast
12:15 PM 39.2 °F 30.5 °F 37.8 °F 95% 30.04 in 2.5 mi NNE 16.1 mph 25.3 mph N/A   Overcast
12:35 PM 39.6 °F 31.0 °F 38.3 °F 95% 30.04 in 2.5 mi NNE 16.1 mph 21.9 mph N/A   Overcast
12:55 PM 39.9 °F 31.8 °F 38.7 °F 95% 30.03 in 2.0 mi NNE 15.0 mph 24.2 mph N/A   Overcast
1:15 PM 40.1 °F 32.0 °F 38.8 °F 95% 30.03 in 2.5 mi NNE 15.0 mph 25.3 mph N/A   Overcast
1:35 PM 40.3 °F 33.4 °F 39.0 °F 95% 30.03 in 3.0 mi NNE 11.5 mph 24.2 mph N/A Rain Light Rain
1:55 PM 40.3 °F 33.0 °F 39.0 °F 95% 30.04 in 2.0 mi NNE 12.7 mph 23.0 mph 0.01 in   Overcast
2:15 PM 40.3 °F 32.2 °F 38.8 °F 95% 30.04 in 2.5 mi NNE 15.0 mph 23.0 mph N/A   Overcast
2:35 PM 40.5 °F 32.1 °F 39.2 °F 95% 30.05 in 2.5 mi NNE 16.1 mph 25.3 mph N/A   Overcast
2:55 PM 40.5 °F 33.2 °F 38.8 °F 94% 30.05 in 2.5 mi NNE 12.7 mph 25.3 mph N/A   Overcast
3:15 PM 40.6 °F 33.0 °F 39.2 °F 95% 30.05 in 3.0 mi NNE 13.8 mph 20.7 mph N/A   Overcast
3:35 PM 40.5 °F 33.6 °F 38.8 °F 94% 30.07 in 3.0 mi North 11.5 mph 20.7 mph N/A   Overcast
3:55 PM 40.1 °F 32.7 °F 38.5 °F 94% 30.08 in 2.0 mi NNE 12.7 mph 23.0 mph N/A Rain Light Rain
4:15 PM 40.1 °F 32.7 °F 38.5 °F 94% 30.07 in 2.0 mi NNE 12.7 mph 23.0 mph N/A Rain Light Rain
4:35 PM 39.9 °F 31.8 °F 38.5 °F 95% 30.08 in 2.5 mi NNE 15.0 mph 23.0 mph N/A   Overcast
4:55 PM 39.4 °F 31.4 °F 37.8 °F 94% 30.09 in 4.0 mi North 13.8 mph 25.3 mph N/A Rain Light Rain
5:15 PM 39.4 °F 32.3 °F 37.6 °F 93% 30.10 in 5.0 mi North 11.5 mph 19.6 mph N/A   Overcast
5:35 PM 39.4 °F 31.4 °F 37.4 °F 93% 30.10 in 5.0 mi NNE 13.8 mph 23.0 mph N/A   Overcast
5:55 PM 39.4 °F 31.8 °F 37.0 °F 91% 30.11 in 7.0 mi NNE 12.7 mph 19.6 mph N/A   Overcast
6:15 PM 39.9 °F 32.1 °F 36.5 °F 88% 30.11 in 10.0 mi NNE 13.8 mph 19.6 mph N/A   Overcast
6:35 PM 40.3 °F 33.0 °F 36.1 °F 85% 30.12 in 10.0 mi NNE 12.7 mph 19.6 mph N/A   Overcast
6:55 PM 40.3 °F 34.4 °F 36.0 °F 85% 30.12 in 10.0 mi NNE 9.2 mph 19.6 mph N/A   Overcast
7:15 PM 40.3 °F 32.6 °F 35.6 °F 83% 30.12 in 10.0 mi NNE 13.8 mph 19.6 mph N/A   Overcast
7:35 PM 40.1 °F 32.7 °F 35.4 °F 83% 30.12 in 10.0 mi NNE 12.7 mph 19.6 mph N/A   Overcast
7:55 PM 40.1 °F 34.1 °F 35.4 °F 83% 30.13 in 10.0 mi NNE 9.2 mph 16.1 mph N/A   Overcast
8:15 PM 40.1 °F 33.2 °F 35.6 °F 84% 30.14 in 10.0 mi NNE 11.5 mph 20.7 mph N/A   Overcast
8:35 PM 40.1 °F 34.1 °F 35.2 °F 83% 30.15 in 10.0 mi NNE 9.2 mph 25.3 mph N/A   Overcast
8:55 PM 40.1 °F 32.7 °F 35.2 °F 83% 30.16 in 10.0 mi NNE 12.7 mph 18.4 mph N/A   Overcast
9:15 PM 39.7 °F 31.9 °F 35.2 °F 84% 30.15 in 10.0 mi NNE 13.8 mph 23.0 mph N/A   Overcast
9:35 PM 39.7 °F 33.2 °F 35.6 °F 85% 30.15 in 10.0 mi NNE 10.4 mph 18.4 mph N/A   Overcast
9:55 PM 39.6 °F 33.5 °F 35.2 °F 85% 30.16 in 10.0 mi NNE 9.2 mph 20.7 mph N/A   Overcast
10:15 PM 39.6 °F 33.0 °F 35.2 °F 85% 30.16 in 10.0 mi NNE 10.4 mph 18.4 mph N/A   Overcast
10:35 PM 39.4 °F 32.7 °F 35.1 °F 84% 30.14 in 10.0 mi NNE 10.4 mph 17.3 mph N/A   Overcast
10:55 PM 39.4 °F 33.8 °F 35.2 °F 85% 30.15 in 10.0 mi NNE 8.1 mph - N/A   Overcast
11:15 PM 39.4 °F 33.8 °F 35.2 °F 85% 30.15 in 10.0 mi North 8.1 mph - N/A   Overcast
11:35 PM 39.4 °F 32.7 °F 35.6 °F 86% 30.15 in 10.0 mi NNE 10.4 mph - N/A   Overcast
11:55 PM 39.2 °F 32.0 °F 35.6 °F 87% 30.15 in 10.0 mi NNE 11.5 mph 18.4 mph N/A   Overcast